| time (UTC) | temp C | wind direction | speed KPH | gust KPH | rain 1hr cm | rain 24hr cm | rain mn cm | humidity % | barometer mb |
| 20260504035635 | 11 | 128 | 0.0 | 1.6 | 0.00 | 0.00 | 0.00 | 72 | 1017.2 |
| 20260504035132 | 11 | 92 | 3.2 | 4.8 | 0.00 | 0.00 | 0.00 | 71 | 1017.2 |
| 20260504034630 | 11 | 106 | 0.0 | 0.0 | 0.00 | 0.00 | 0.00 | 71 | 1017.1 |
| 20260504034126 | 11 | 164 | 1.6 | 3.2 | 0.00 | 0.00 | 0.00 | 72 | 1017.0 |
| 20260504033624 | 10 | 78 | 0.0 | 1.6 | 0.00 | 0.00 | 0.00 | 74 | 1016.9 |
| 20260504033121 | 8 | 111 | 0.0 | 0.0 | 0.00 | 0.00 | 0.00 | 83 | 1017.0 |
| 20260504032618 | 8 | 103 | 1.6 | 1.6 | 0.00 | 0.00 | 0.00 | 90 | 1016.9 |
| 20260504032115 | 8 | 100 | 0.0 | 0.0 | 0.00 | 0.00 | 0.00 | 92 | 1017.0 |
| 20260504031612 | 8 | 101 | 0.0 | 0.0 | 0.00 | 0.00 | 0.00 | 91 | 1016.8 |
| 20260504031108 | 8 | 101 | 0.0 | 0.0 | 0.00 | 0.00 | 0.00 | 90 | 1016.8 |
| 20260504030605 | 8 | 101 | 0.0 | 0.0 | 0.00 | 0.00 | 0.00 | 90 | 1016.6 |
| 20260504025559 | 8 | 101 | 0.0 | 0.0 | 0.00 | 0.00 | 0.00 | 89 | 1016.7 |
| 20260504025056 | 8 | 101 | 0.0 | 0.0 | 0.00 | 0.00 | 0.00 | 88 | 1016.7 |
| 20260504024553 | 8 | 101 | 0.0 | 0.0 | 0.00 | 0.00 | 0.00 | 88 | 1016.6 |
| 20260504024050 | 8 | 101 | 0.0 | 0.0 | 0.00 | 0.00 | 0.00 | 87 | 1016.8 |
| 20260504023546 | 8 | 101 | 0.0 | 0.0 | 0.00 | 0.00 | 0.00 | 87 | 1016.7 |
| 20260504023042 | 8 | 101 | 0.0 | 0.0 | 0.00 | 0.00 | 0.00 | 86 | 1016.6 |
| 20260504022538 | 8 | 101 | 0.0 | 0.0 | 0.00 | 0.00 | 0.00 | 85 | 1016.8 |
| 20260504022035 | 8 | 101 | 0.0 | 0.0 | 0.00 | 0.00 | 0.00 | 85 | 1016.9 |
| 20260504021532 | 8 | 101 | 0.0 | 0.0 | 0.00 | 0.00 | 0.00 | 84 | 1016.8 |
| 20260504021029 | 8 | 101 | 0.0 | 0.0 | 0.00 | 0.00 | 0.00 | 84 | 1016.9 |
| 20260504020526 | 8 | 102 | 0.0 | 0.0 | 0.00 | 0.00 | 0.00 | 83 | 1016.8 |
| 20260504020023 | 8 | 102 | 0.0 | 0.0 | 0.00 | 0.00 | 0.00 | 82 | 1016.8 |
| 20260504015519 | 8 | 102 | 0.0 | 0.0 | 0.00 | 0.00 | 0.00 | 82 | 1016.8 |
| 20260504015015 | 9 | 102 | 0.0 | 0.0 | 0.00 | 0.00 | 0.00 | 80 | 1017.0 |
| 20260504014511 | 9 | 102 | 0.0 | 0.0 | 0.00 | 0.00 | 0.00 | 78 | 1016.8 |
| 20260504014008 | 9 | 102 | 0.0 | 0.0 | 0.00 | 0.00 | 0.00 | 78 | 1016.8 |
| 20260504013506 | 9 | 102 | 0.0 | 0.0 | 0.00 | 0.00 | 0.00 | 76 | 1016.6 |
| 20260504013003 | 9 | 102 | 0.0 | 0.0 | 0.00 | 0.00 | 0.00 | 75 | 1016.5 |
| 20260504012501 | 10 | 102 | 0.0 | 0.0 | 0.00 | 0.00 | 0.00 | 74 | 1016.7 |
| 20260504011958 | 9 | 105 | 0.0 | 0.0 | 0.00 | 0.00 | 0.00 | 71 | 1016.6 |
| 20260504011454 | 10 | 105 | 0.0 | 0.0 | 0.00 | 0.00 | 0.00 | 71 | 1016.4 |
| 20260504010950 | 10 | 105 | 0.0 | 0.0 | 0.00 | 0.00 | 0.00 | 71 | 1016.3 |
| 20260504010447 | 10 | 105 | 0.0 | 0.0 | 0.00 | 0.00 | 0.00 | 71 | 1016.3 |
| 20260504005942 | 10 | 105 | 0.0 | 0.0 | 0.00 | 0.00 | 0.00 | 69 | 1016.2 |
| 20260504005439 | 10 | 105 | 0.0 | 0.0 | 0.00 | 0.00 | 0.00 | 65 | 1016.2 |
| 20260504004937 | 10 | 105 | 0.0 | 0.0 | 0.00 | 0.00 | 0.00 | 63 | 1016.0 |
| 20260504004434 | 11 | 105 | 0.0 | 0.0 | 0.00 | 0.00 | 0.00 | 62 | 1016.2 |
| 20260504003931 | 11 | 106 | 0.0 | 0.0 | 0.00 | 0.00 | 0.00 | 61 | 1015.9 |
| 20260504003427 | 11 | 106 | 0.0 | 0.0 | 0.00 | 0.00 | 0.00 | 61 | 1016.0 |
| 20260504002924 | 11 | 106 | 0.0 | 0.0 | 0.00 | 0.00 | 0.00 | 61 | 1015.9 |
| 20260504002421 | 11 | 106 | 0.0 | 0.0 | 0.00 | 0.00 | 0.00 | 60 | 1015.7 |
| 20260504001919 | 12 | 106 | 0.0 | 0.0 | 0.00 | 0.00 | 0.00 | 59 | 1015.9 |
| 20260504001416 | 12 | 106 | 0.0 | 0.0 | 0.00 | 0.00 | 0.00 | 58 | 1015.6 |
| 20260504000912 | 12 | 106 | 0.0 | 0.0 | 0.00 | 0.00 | 0.00 | 55 | 1015.7 |
| 20260504000410 | 12 | 106 | 0.0 | 0.0 | 0.00 | 0.00 | 0.00 | 54 | 1015.6 |
| 20260503235907 | 13 | 106 | 0.0 | 0.0 | 0.00 | 0.00 | 0.00 | 52 | 1015.8 |
| 20260503235405 | 13 | 106 | 0.0 | 0.0 | 0.00 | 0.00 | 0.00 | 52 | 1015.6 |
| 20260503234902 | 13 | 106 | 0.0 | 0.0 | 0.00 | 0.00 | 0.00 | 53 | 1015.5 |
| 20260503234359 | 14 | 106 | 0.0 | 0.0 | 0.00 | 0.00 | 0.00 | 51 | 1015.3 |
| 20260503233857 | 14 | 106 | 0.0 | 0.0 | 0.00 | 0.00 | 0.00 | 49 | 1015.6 |
| 20260503233354 | 15 | 94 | 0.0 | 0.0 | 0.00 | 0.00 | 0.00 | 47 | 1015.6 |
| 20260503232850 | 15 | 94 | 0.0 | 0.0 | 0.00 | 0.00 | 0.00 | 44 | 1015.4 |
| 20260503232347 | 15 | 95 | 0.0 | 1.6 | 0.00 | 0.00 | 0.00 | 44 | 1015.3 |
| 20260503231845 | 15 | 110 | 0.0 | 0.0 | 0.00 | 0.00 | 0.00 | 43 | 1015.4 |
| 20260503231342 | 15 | 111 | 1.6 | 1.6 | 0.00 | 0.00 | 0.00 | 41 | 1015.4 |
| 20260503230838 | 16 | 118 | 0.0 | 0.0 | 0.00 | 0.00 | 0.00 | 40 | 1015.3 |
| 20260503230335 | 16 | 92 | 0.0 | 0.0 | 0.00 | 0.00 | 0.00 | 41 | 1015.4 |
| 20260503225833 | 17 | 185 | 1.6 | 1.6 | 0.00 | 0.00 | 0.00 | 38 | 1015.1 |
| 20260503225328 | 17 | 173 | 1.6 | 1.6 | 0.00 | 0.00 | 0.00 | 36 | 1015.2 |
| 20260503224825 | 17 | 91 | 1.6 | 1.6 | 0.00 | 0.00 | 0.00 | 36 | 1015.4 |
| 20260503224322 | 18 | 131 | 0.0 | 1.6 | 0.00 | 0.00 | 0.00 | 36 | 1015.4 |
| 20260503223820 | 18 | 91 | 0.0 | 1.6 | 0.00 | 0.00 | 0.00 | 37 | 1015.4 |
| 20260503223317 | 17 | 82 | 1.6 | 1.6 | 0.00 | 0.00 | 0.00 | 36 | 1015.5 |
| 20260503222813 | 17 | 180 | 1.6 | 1.6 | 0.00 | 0.00 | 0.00 | 36 | 1015.3 |
| 20260503222312 | 17 | 313 | 1.6 | 3.2 | 0.00 | 0.00 | 0.00 | 36 | 1015.5 |
| 20260503221809 | 17 | 146 | 1.6 | 1.6 | 0.00 | 0.00 | 0.00 | 37 | 1015.5 |
| 20260503221308 | 17 | 109 | 1.6 | 1.6 | 0.00 | 0.00 | 0.00 | 36 | 1015.2 |
| 20260503220803 | 18 | 178 | 1.6 | 3.2 | 0.00 | 0.00 | 0.00 | 36 | 1015.4 |
| 20260503220300 | 18 | 153 | 0.0 | 1.6 | 0.00 | 0.00 | 0.00 | 34 | 1015.4 |
| 20260503215757 | 18 | 306 | 3.2 | 4.8 | 0.00 | 0.00 | 0.00 | 35 | 1015.5 |
| 20260503215254 | 18 | 97 | 0.0 | 1.6 | 0.00 | 0.00 | 0.00 | 36 | 1015.4 |
| 20260503214752 | 18 | 36 | 1.6 | 1.6 | 0.00 | 0.00 | 0.00 | 35 | 1015.2 |
| 20260503214249 | 18 | 298 | 3.2 | 3.2 | 0.00 | 0.00 | 0.00 | 33 | 1015.4 |
| 20260503213747 | 18 | 105 | 0.0 | 0.0 | 0.00 | 0.00 | 0.00 | 35 | 1015.4 |
| 20260503213244 | 18 | 2 | 3.2 | 3.2 | 0.00 | 0.00 | 0.00 | 34 | 1015.2 |
| 20260503212740 | 18 | 170 | 1.6 | 1.6 | 0.00 | 0.00 | 0.00 | 34 | 1015.2 |
| 20260503212238 | 18 | 86 | 1.6 | 1.6 | 0.00 | 0.00 | 0.00 | 35 | 1015.4 |
| 20260503211736 | 18 | 95 | 3.2 | 3.2 | 0.00 | 0.00 | 0.00 | 33 | 1015.3 |
| 20260503211232 | 18 | 86 | 0.0 | 1.6 | 0.00 | 0.00 | 0.00 | 35 | 1015.0 |
| 20260503210727 | 18 | 99 | 0.0 | 0.0 | 0.00 | 0.00 | 0.00 | 35 | 1015.3 |
| 20260503210225 | 18 | 150 | 8.0 | 11.3 | 0.00 | 0.00 | 0.00 | 34 | 1015.3 |
| 20260503205720 | 18 | 56 | 1.6 | 1.6 | 0.00 | 0.00 | 0.00 | 34 | 1015.2 |
| 20260503205216 | 18 | 198 | 1.6 | 1.6 | 0.00 | 0.00 | 0.00 | 37 | 1015.2 |
| 20260503204713 | 17 | 222 | 4.8 | 8.0 | 0.00 | 0.00 | 0.00 | 35 | 1015.3 |
| 20260503204211 | 18 | 254 | 4.8 | 4.8 | 0.00 | 0.00 | 0.00 | 33 | 1015.3 |
| 20260503203708 | 18 | 34 | 3.2 | 4.8 | 0.00 | 0.00 | 0.00 | 34 | 1015.2 |
| 20260503203205 | 18 | 288 | 1.6 | 3.2 | 0.00 | 0.00 | 0.00 | 34 | 1015.1 |
| 20260503202702 | 18 | 2 | 6.4 | 8.0 | 0.00 | 0.00 | 0.00 | 34 | 1015.1 |
| 20260503202200 | 18 | 36 | 0.0 | 1.6 | 0.00 | 0.00 | 0.00 | 34 | 1015.0 |
| 20260503201658 | 18 | 153 | 1.6 | 1.6 | 0.00 | 0.00 | 0.00 | 34 | 1015.4 |
| 20260503201155 | 17 | 227 | 4.8 | 4.8 | 0.00 | 0.00 | 0.00 | 35 | 1015.3 |
| 20260503200651 | 17 | 149 | 1.6 | 3.2 | 0.00 | 0.00 | 0.00 | 37 | 1015.4 |
| 20260503200148 | 17 | 64 | 3.2 | 3.2 | 0.00 | 0.00 | 0.00 | 35 | 1015.3 |
| 20260503195645 | 17 | 169 | 4.8 | 8.0 | 0.00 | 0.00 | 0.00 | 35 | 1015.6 |
| 20260503195142 | 17 | 316 | 4.8 | 4.8 | 0.00 | 0.00 | 0.00 | 36 | 1015.8 |
| 20260503194639 | 17 | 225 | 6.4 | 8.0 | 0.00 | 0.00 | 0.00 | 35 | 1015.8 |
| 20260503194134 | 17 | 337 | 4.8 | 4.8 | 0.00 | 0.00 | 0.00 | 35 | 1015.9 |
| 20260503193631 | 18 | 151 | 1.6 | 3.2 | 0.00 | 0.00 | 0.00 | 35 | 1016.0 |
| 20260503193126 | 18 | 77 | 1.6 | 1.6 | 0.00 | 0.00 | 0.00 | 36 | 1015.9 |
| 20260503192622 | 17 | 99 | 1.6 | 3.2 | 0.00 | 0.00 | 0.00 | 37 | 1016.1 |
| 20260503192118 | 17 | 82 | 3.2 | 4.8 | 0.00 | 0.00 | 0.00 | 35 | 1016.1 |
| 20260503191615 | 17 | 82 | 1.6 | 1.6 | 0.00 | 0.00 | 0.00 | 35 | 1015.9 |
| 20260503191112 | 18 | 103 | 1.6 | 3.2 | 0.00 | 0.00 | 0.00 | 35 | 1016.1 |
| 20260503190609 | 17 | 235 | 4.8 | 4.8 | 0.00 | 0.00 | 0.00 | 36 | 1016.3 |
| 20260503190106 | 17 | 159 | 3.2 | 3.2 | 0.00 | 0.00 | 0.00 | 36 | 1016.3 |
| 20260503185603 | 16 | 190 | 4.8 | 8.0 | 0.00 | 0.00 | 0.00 | 37 | 1016.3 |
| 20260503185102 | 17 | 22 | 8.0 | 11.3 | 0.00 | 0.00 | 0.00 | 36 | 1016.2 |
| 20260503184558 | 16 | 235 | 6.4 | 9.7 | 0.00 | 0.00 | 0.00 | 38 | 1016.5 |
| 20260503184055 | 17 | 154 | 1.6 | 1.6 | 0.00 | 0.00 | 0.00 | 36 | 1016.4 |
| 20260503183551 | 16 | 26 | 1.6 | 3.2 | 0.00 | 0.00 | 0.00 | 37 | 1016.4 |
| 20260503183049 | 16 | 314 | 8.0 | 11.3 | 0.00 | 0.00 | 0.00 | 36 | 1016.6 |
| 20260503182547 | 16 | 339 | 4.8 | 4.8 | 0.00 | 0.00 | 0.00 | 36 | 1016.6 |
| 20260503182045 | 16 | 267 | 4.8 | 4.8 | 0.00 | 0.00 | 0.00 | 37 | 1016.5 |
| 20260503181542 | 16 | 84 | 4.8 | 4.8 | 0.00 | 0.00 | 0.00 | 38 | 1016.7 |
| 20260503181038 | 16 | 243 | 4.8 | 9.7 | 0.00 | 0.00 | 0.00 | 39 | 1016.7 |
| 20260503180535 | 17 | 217 | 4.8 | 8.0 | 0.00 | 0.00 | 0.00 | 38 | 1016.5 |
| 20260503180032 | 16 | 265 | 4.8 | 4.8 | 0.00 | 0.00 | 0.00 | 39 | 1016.5 |
| 20260503175530 | 16 | 105 | 3.2 | 3.2 | 0.00 | 0.00 | 0.00 | 42 | 1016.6 |
| 20260503175027 | 15 | 86 | 4.8 | 4.8 | 0.00 | 0.00 | 0.00 | 37 | 1016.6 |
| 20260503174524 | 16 | 122 | 1.6 | 3.2 | 0.00 | 0.00 | 0.00 | 39 | 1016.6 |
| 20260503174020 | 15 | 23 | 4.8 | 4.8 | 0.00 | 0.00 | 0.00 | 38 | 1016.6 |
| 20260503173515 | 16 | 336 | 4.8 | 4.8 | 0.00 | 0.00 | 0.00 | 39 | 1016.8 |
| 20260503173012 | 15 | 46 | 3.2 | 3.2 | 0.00 | 0.00 | 0.00 | 40 | 1017.1 |
| 20260503172510 | 15 | 83 | 3.2 | 3.2 | 0.00 | 0.00 | 0.00 | 40 | 1016.9 |
| 20260503172006 | 15 | 289 | 4.8 | 4.8 | 0.00 | 0.00 | 0.00 | 39 | 1017.2 |
| 20260503171503 | 15 | 105 | 0.0 | 1.6 | 0.00 | 0.00 | 0.00 | 42 | 1016.9 |
| 20260503171001 | 15 | 78 | 4.8 | 4.8 | 0.00 | 0.00 | 0.00 | 40 | 1017.1 |
| 20260503170457 | 15 | 235 | 1.6 | 3.2 | 0.00 | 0.00 | 0.00 | 40 | 1017.0 |
| 20260503150849 | 13 | 259 | 14.5 | 16.1 | 0.00 | 0.00 | 0.00 | 42 | 1017.4 |
| 20260503150345 | 12 | 312 | 11.3 | 12.9 | 0.00 | 0.00 | 0.00 | 42 | 1017.4 |
| 20260503140309 | 11 | 57 | 3.2 | 4.8 | 0.00 | 0.00 | 0.00 | 46 | 1017.2 |
| 20260503131239 | 11 | 81 | 1.6 | 1.6 | 0.00 | 0.00 | 0.00 | 53 | 1017.3 |
| 20260503130737 | 11 | 26 | 4.8 | 4.8 | 0.00 | 0.00 | 0.00 | 52 | 1017.2 |
| 20260503130234 | 11 | 101 | 0.0 | 1.6 | 0.00 | 0.00 | 0.00 | 55 | 1017.3 |
| 20260503120200 | 10 | 86 | 1.6 | 1.6 | 0.00 | 0.00 | 0.00 | 64 | 1016.6 |
| 20260503110627 | 8 | 121 | 1.6 | 1.6 | 0.00 | 0.00 | 0.00 | 66 | 1016.2 |
| 20260503110124 | 8 | 95 | 0.0 | 0.0 | 0.00 | 0.00 | 0.00 | 67 | 1016.1 |
| 20260503081440 | 9 | 106 | 0.0 | 0.0 | 0.00 | 0.00 | 0.00 | 76 | 1013.6 |
| 20260503080937 | 9 | 107 | 0.0 | 0.0 | 0.00 | 0.00 | 0.00 | 76 | 1013.4 |
| 20260503080433 | 9 | 118 | 0.0 | 0.0 | 0.00 | 0.00 | 0.00 | 76 | 1013.4 |
| 20260503072910 | 9 | 89 | 0.0 | 0.0 | 0.00 | 0.00 | 0.00 | 79 | 1013.0 |
| 20260503072407 | 9 | 89 | 0.0 | 1.6 | 0.00 | 0.00 | 0.00 | 79 | 1012.9 |
| 20260503071904 | 9 | 89 | 0.0 | 0.0 | 0.00 | 0.00 | 0.00 | 78 | 1013.0 |
| 20260503071402 | 9 | 89 | 0.0 | 0.0 | 0.00 | 0.00 | 0.00 | 78 | 1012.8 |
| 20260503070857 | 9 | 89 | 0.0 | 0.0 | 0.00 | 0.00 | 0.00 | 77 | 1012.9 |
| 20260503070355 | 9 | 89 | 0.0 | 0.0 | 0.00 | 0.00 | 0.00 | 78 | 1012.7 |
| 20260503060320 | 8 | 89 | 0.0 | 0.0 | 0.00 | 0.00 | 0.00 | 92 | 1012.3 |
| 20260503054808 | 8 | 89 | 0.0 | 0.0 | 0.00 | 0.00 | 0.00 | 91 | 1012.5 |
| 20260503054304 | 8 | 89 | 0.0 | 0.0 | 0.00 | 0.00 | 0.00 | 91 | 1012.4 |
| 20260503053802 | 8 | 89 | 0.0 | 0.0 | 0.00 | 0.00 | 0.00 | 90 | 1012.3 |
| 20260503053301 | 8 | 89 | 0.0 | 0.0 | 0.00 | 0.00 | 0.00 | 90 | 1012.3 |
| 20260503052756 | 8 | 89 | 0.0 | 0.0 | 0.00 | 0.00 | 0.00 | 90 | 1012.2 |
| 20260503052253 | 8 | 89 | 0.0 | 0.0 | 0.00 | 0.00 | 0.00 | 89 | 1012.2 |
| 20260503051748 | 8 | 89 | 0.0 | 0.0 | 0.00 | 0.00 | 0.00 | 89 | 1012.2 |
| 20260503051246 | 8 | 89 | 0.0 | 0.0 | 0.00 | 0.00 | 0.00 | 89 | 1012.4 |
| 20260503050742 | 8 | 89 | 0.0 | 0.0 | 0.00 | 0.00 | 0.00 | 89 | 1012.4 |
| 20260503050239 | 8 | 89 | 0.0 | 0.0 | 0.00 | 0.00 | 0.00 | 89 | 1012.4 |
| 20260503045736 | 7 | 89 | 0.0 | 0.0 | 0.00 | 0.00 | 0.00 | 89 | 1012.5 |
| 20260503045234 | 7 | 89 | 0.0 | 0.0 | 0.00 | 0.00 | 0.00 | 88 | 1012.4 |
| 20260503044730 | 7 | 89 | 0.0 | 0.0 | 0.00 | 0.00 | 0.00 | 88 | 1012.5 |
| 20260503044227 | 7 | 89 | 0.0 | 0.0 | 0.00 | 0.00 | 0.00 | 87 | 1012.6 |
| 20260503043724 | 8 | 89 | 0.0 | 0.0 | 0.00 | 0.00 | 0.00 | 87 | 1012.5 |
| 20260503043222 | 8 | 89 | 0.0 | 0.0 | 0.00 | 0.00 | 0.00 | 86 | 1012.5 |
| 20260503042717 | 8 | 89 | 0.0 | 0.0 | 0.00 | 0.00 | 0.00 | 85 | 1012.7 |
| 20260503042214 | 8 | 89 | 0.0 | 0.0 | 0.00 | 0.00 | 0.00 | 86 | 1012.7 |
| 20260503041710 | 8 | 89 | 0.0 | 0.0 | 0.00 | 0.00 | 0.00 | 85 | 1012.7 |
| 20260503041208 | 8 | 89 | 0.0 | 0.0 | 0.00 | 0.00 | 0.00 | 83 | 1012.4 |
| 20260503040705 | 8 | 89 | 0.0 | 0.0 | 0.00 | 0.00 | 0.00 | 82 | 1012.5 |
| 20260503040203 | 8 | 89 | 0.0 | 0.0 | 0.00 | 0.00 | 0.00 | 81 | 1012.5 |
| 20260503035659 | 8 | 89 | 0.0 | 0.0 | 0.00 | 0.00 | 0.00 | 81 | 1012.5 |